Check out our new BloomSky Weather System.

Active alerts


No alerts


Thunder radar  blitzortung!


Rain radar more information rain snow radar


Visit our other weather sites:

Template documentation
and downloads

And another site



Weather Underground History page Text

Daily Summary for January 29, 2018 Units:  Metric    English   Both
« Previous Day
Next Day »
Daily Weekly Monthly Yearly Custom
  High: Low: Average:
Temperature: -17.8 °C 4.8 °C 11.5 °C
Dew Point: -17.8 °C 0.4 °C 2.4 °C
Humidity: Humidity % 33 % 57 %
Wind Speed: 0 km/h 0 km/h 4.8 km/h
Wind Gust: 0 km/h - -
Wind:- - WNW
Pressure: 0 hPa 1026.3 hPa -
Precipitation: 0 mm    
Historical Graphs
 
 
Tabular Data for January 29, 2018
Time Temperature Dew Point Pressure Wind Wind Speed Wind Gust Humidity Rainfall Rate (Hourly)
-17.8 °C -17.8 °C 0 hPa Calm     Humidity % 0 mm
00:00 11.2 °C 6.9 °C 1026.3 hPa NNW 1.6 km/h 8 km/h 75 % 0 mm
00:05 11.1 °C 6.8 °C 1026.6 hPa NW 3.2 km/h 8 km/h 75 % 0 mm
00:10 11.1 °C 6.6 °C 1026.6 hPa NNW 1.6 km/h 8 km/h 74 % 0 mm
00:15 10.9 °C 6.4 °C 1026.6 hPa NW 1.6 km/h 8 km/h 74 % 0 mm
00:20 10.9 °C 6.3 °C 1026.6 hPa NW 3.2 km/h 8 km/h 73 % 0 mm
00:25 10.8 °C 6.2 °C 1026.6 hPa North 4.8 km/h 8 km/h 73 % 0 mm
00:30 10.8 °C 6.2 °C 1026.6 hPa Calm   8 km/h 73 % 0 mm
00:35 10.8 °C 6 °C 1026.6 hPa NW 1.6 km/h 6.4 km/h 72 % 0 mm
00:40 10.7 °C 5.9 °C 1026.6 hPa NW 1.6 km/h 6.4 km/h 72 % 0 mm
00:45 10.6 °C 5.8 °C 1026.6 hPa WNW 1.6 km/h 6.4 km/h 72 % 0 mm
00:50 10.6 °C 5.6 °C 1026.6 hPa NNE 3.2 km/h 8 km/h 71 % 0 mm
00:55 10.4 °C 5.4 °C 1026.6 hPa NNW 1.6 km/h 8 km/h 71 % 0 mm
01:00 10.4 °C 5.4 °C 1026.6 hPa NNW 3.2 km/h 8 km/h 71 % 0 mm
01:05 10.3 °C 5.3 °C 1026.6 hPa NW 1.6 km/h 6.4 km/h 71 % 0 mm
01:10 10.3 °C 5.3 °C 1027 hPa WNW 1.6 km/h 6.4 km/h 71 % 0 mm
01:15 10.2 °C 5.2 °C 1027 hPa NW 3.2 km/h 4.8 km/h 71 % 0 mm
01:20 10.1 °C 5.1 °C 1026.6 hPa NW 1.6 km/h 4.8 km/h 71 % 0 mm
01:25 10.1 °C 5.1 °C 1027 hPa Calm   4.8 km/h 71 % 0 mm
01:30 9.8 °C 4.8 °C 1027 hPa Calm   4.8 km/h 71 % 0 mm
01:35 9.7 °C 4.7 °C 1027 hPa Calm   3.2 km/h 71 % 0 mm
01:40 9.4 °C 4.6 °C 1027 hPa WNW 1.6 km/h 1.6 km/h 72 % 0 mm
01:45 9.4 °C 4.6 °C 1027 hPa Calm   3.2 km/h 72 % 0 mm
01:50 9.4 °C 4.6 °C 1027 hPa Calm   3.2 km/h 72 % 0 mm
01:55 9.3 °C 4.5 °C 1027 hPa Calm   3.2 km/h 72 % 0 mm
02:00 9.2 °C 4.6 °C 1027 hPa Calm   3.2 km/h 73 % 0 mm
02:05 9.1 °C 4.5 °C 1027 hPa Calm   3.2 km/h 73 % 0 mm
02:10 9 °C 4.4 °C 1027 hPa Calm   1.6 km/h 73 % 0 mm
02:15 8.9 °C 4.3 °C 1027 hPa Calm   1.6 km/h 73 % 0 mm
02:20 8.9 °C 4.3 °C 1027 hPa Calm   1.6 km/h 73 % 0 mm
02:25 8.8 °C 4.2 °C 1027 hPa Calm   1.6 km/h 73 % 0 mm
02:30 8.7 °C 4.3 °C 1027 hPa NNW 1.6 km/h 1.6 km/h 74 % 0 mm
02:35 8.6 °C 4.2 °C 1027 hPa Calm   1.6 km/h 74 % 0 mm
02:40 8.4 °C 4.2 °C 1027 hPa Calm   1.6 km/h 75 % 0 mm
02:45 8.2 °C 4.2 °C 1027 hPa Calm   1.6 km/h 76 % 0 mm
02:50 8.1 °C 4.1 °C 1027 hPa Calm   1.6 km/h 76 % 0 mm
02:55 8 °C 4 °C 1027 hPa Calm   1.6 km/h 76 % 0 mm
03:00 7.9 °C 4.1 °C 1027 hPa Calm   1.6 km/h 77 % 0 mm
03:05 7.7 °C 3.9 °C 1027 hPa Calm   1.6 km/h 77 % 0 mm
03:10 7.4 °C 3.6 °C 1027 hPa Calm   1.6 km/h 77 % 0 mm
03:15 7.1 °C 3.3 °C 1027 hPa Calm     77 % 0 mm
03:20 6.8 °C 3.6 °C 1027 hPa Calm   1.6 km/h 80 % 0 mm
03:25 6.8 °C 3.9 °C 1027 hPa Calm   1.6 km/h 82 % 0 mm
03:30 6.7 °C 3.8 °C 1027.3 hPa Calm   1.6 km/h 82 % 0 mm
03:35 6.6 °C 3.9 °C 1027 hPa Calm   1.6 km/h 83 % 0 mm
03:40 6.6 °C 4.1 °C 1027 hPa Calm   1.6 km/h 84 % 0 mm
03:45 6.4 °C 3.9 °C 1027 hPa Calm   1.6 km/h 84 % 0 mm
03:50 6.2 °C 3.5 °C 1027 hPa Calm     83 % 0 mm
03:55 5.8 °C 3.1 °C 1027 hPa Calm     83 % 0 mm
04:00 5.6 °C 3.3 °C 1027 hPa Calm     85 % 0 mm
04:05 5.6 °C 3.4 °C 1027 hPa Calm     86 % 0 mm
04:10 5.6 °C 3.4 °C 1027 hPa Calm     86 % 0 mm
04:15 5.6 °C 3.4 °C 1027 hPa Calm     86 % 0 mm
04:20 5.5 °C 3.5 °C 1027 hPa NNW 1.6 km/h 1.6 km/h 87 % 0 mm
04:25 5.7 °C 3.7 °C 1027 hPa Calm   1.6 km/h 87 % 0 mm
04:30 5.9 °C 3.7 °C 1027 hPa Calm   1.6 km/h 86 % 0 mm
04:35 6.1 °C 3.9 °C 1027 hPa Calm   1.6 km/h 86 % 0 mm
04:40 6.1 °C 3.8 °C 1027 hPa Calm   1.6 km/h 85 % 0 mm
04:46 6.1 °C 3.8 °C 1027 hPa Calm   1.6 km/h 85 % 0 mm
04:51 6.2 °C 3.9 °C 1027 hPa Calm   3.2 km/h 85 % 0 mm
04:55 6.2 °C 3.9 °C 1027 hPa Calm   3.2 km/h 85 % 0 mm
05:00 6.3 °C 3.8 °C 1027.3 hPa NNW 1.6 km/h 4.8 km/h 84 % 0 mm
05:05 6.4 °C 3.7 °C 1027.3 hPa North 3.2 km/h 4.8 km/h 83 % 0 mm
05:11 6.6 °C 3.7 °C 1027.3 hPa NW 1.6 km/h 4.8 km/h 82 % 0 mm
05:16 6.6 °C 3.6 °C 1027.3 hPa NW 3.2 km/h 4.8 km/h 81 % 0 mm
05:21 6.7 °C 3.5 °C 1027.7 hPa NNW 1.6 km/h 4.8 km/h 80 % 0 mm
05:26 6.9 °C 3.5 °C 1027.7 hPa NW 1.6 km/h 4.8 km/h 79 % 0 mm
05:31 6.9 °C 3.5 °C 1027.7 hPa NW 1.6 km/h 4.8 km/h 79 % 0 mm
05:36 6.9 °C 3.5 °C 1027.7 hPa NNW 1.6 km/h 3.2 km/h 79 % 0 mm
05:41 7 °C 3.6 °C 1028 hPa WNW 3.2 km/h 4.8 km/h 79 % 0 mm
05:46 7 °C 3.4 °C 1028 hPa NW 1.6 km/h 4.8 km/h 78 % 0 mm
05:51 7 °C 3.4 °C 1028 hPa NNW 3.2 km/h 6.4 km/h 78 % 0 mm
05:56 7 °C 3.4 °C 1028.3 hPa NW 3.2 km/h 6.4 km/h 78 % 0 mm
06:01 6.9 °C 3.3 °C 1028.3 hPa NW 1.6 km/h 6.4 km/h 78 % 0 mm
06:06 6.9 °C 3.5 °C 1028.3 hPa NW 1.6 km/h 4.8 km/h 79 % 0 mm
06:11 6.8 °C 3.4 °C 1028.3 hPa NNW 1.6 km/h 3.2 km/h 79 % 0 mm
06:16 6.7 °C 3.3 °C 1028.3 hPa NW 1.6 km/h 3.2 km/h 79 % 0 mm
06:21 6.7 °C 3.3 °C 1028.7 hPa NW 1.6 km/h 3.2 km/h 79 % 0 mm
06:26 6.6 °C 3.4 °C 1028.7 hPa Calm   3.2 km/h 80 % 0 mm
06:31 6.5 °C 3.3 °C 1028.7 hPa Calm   3.2 km/h 80 % 0 mm
06:36 6.3 °C 3.1 °C 1028.7 hPa Calm   3.2 km/h 80 % 0 mm
06:41 6.1 °C 2.9 °C 1028.7 hPa Calm   1.6 km/h 80 % 0 mm
06:46 5.9 °C 2.9 °C 1029 hPa Calm   1.6 km/h 81 % 0 mm
06:51 5.7 °C 2.7 °C 1029 hPa Calm   1.6 km/h 81 % 0 mm
06:56 5.5 °C 2.7 °C 1029 hPa Calm   1.6 km/h 82 % 0 mm
07:01 5.3 °C 2.5 °C 1029 hPa Calm   1.6 km/h 82 % 0 mm
07:06 5.1 °C 2.5 °C 1029.3 hPa Calm   1.6 km/h 83 % 0 mm
07:11 4.9 °C 2.3 °C 1029.3 hPa Calm   1.6 km/h 83 % 0 mm
07:16 4.8 °C 2.3 °C 1029.3 hPa Calm   1.6 km/h 84 % 0 mm
07:21 4.9 °C 2.6 °C 1029.3 hPa Calm   1.6 km/h 85 % 0 mm
07:26 5 °C 2.5 °C 1029.3 hPa Calm   1.6 km/h 84 % 0 mm
07:31 5.1 °C 2.6 °C 1029.3 hPa NNW 1.6 km/h 3.2 km/h 84 % 0 mm
07:36 5.3 °C 2.6 °C 1029.7 hPa North 1.6 km/h 3.2 km/h 83 % 0 mm
07:41 5.4 °C 2.6 °C 1029.7 hPa Calm   3.2 km/h 82 % 0 mm
07:46 5.6 °C 2.8 °C 1029.7 hPa Calm   1.6 km/h 82 % 0 mm
07:51 5.8 °C 2.8 °C 1029.7 hPa Calm   1.6 km/h 81 % 0 mm
07:56 6.2 °C 3 °C 1029.7 hPa Calm   3.2 km/h 80 % 0 mm
08:01 6.5 °C 2.9 °C 1029.7 hPa NW 3.2 km/h 3.2 km/h 78 % 0 mm
08:06 6.9 °C 3 °C 1029.7 hPa NNW 1.6 km/h 6.4 km/h 76 % 0 mm
08:11 7.3 °C 3 °C 1029.7 hPa NW 3.2 km/h 6.4 km/h 74 % 0 mm
08:16 7.6 °C 3.1 °C 1029.7 hPa NW 3.2 km/h 8 km/h 73 % 0 mm
08:21 7.9 °C 3.2 °C 1029.7 hPa NNW 6.4 km/h 8 km/h 72 % 0 mm
08:26 8.2 °C 3.1 °C 1030 hPa NW 6.4 km/h 8 km/h 70 % 0 mm
08:31 8.5 °C 3.1 °C 1030 hPa NW 3.2 km/h 9.7 km/h 69 % 0 mm
08:36 8.8 °C 3.4 °C 1030 hPa WNW 3.2 km/h 9.7 km/h 69 % 0 mm
08:41 9.1 °C 3.3 °C 1030 hPa NW 3.2 km/h 9.7 km/h 67 % 0 mm
08:46 9.3 °C 3.3 °C 1030 hPa WNW 1.6 km/h 9.7 km/h 66 % 0 mm
08:51 9.7 °C 3.4 °C 1030 hPa NW 1.6 km/h 9.7 km/h 65 % 0 mm
08:56 10.1 °C 3.6 °C 1030 hPa NNW 8 km/h 9.7 km/h 64 % 0 mm
09:01 10.3 °C 3.1 °C 1030.4 hPa NNW 3.2 km/h 11.3 km/h 61 % 0 mm
09:06 10.7 °C 3.5 °C 1030.4 hPa NNW 9.7 km/h 11.3 km/h 61 % 0 mm
09:11 11 °C 3.3 °C 1030.4 hPa WNW 3.2 km/h 12.9 km/h 59 % 0 mm
09:16 11.3 °C 3.1 °C 1030.4 hPa North 8 km/h 12.9 km/h 57 % 0 mm
09:21 11.5 °C 3.3 °C 1030.4 hPa WNW 1.6 km/h 12.9 km/h 57 % 0 mm
09:26 11.9 °C 3.4 °C 1030.4 hPa NNW 4.8 km/h 11.3 km/h 56 % 0 mm
09:31 12.2 °C 3.2 °C 1030.4 hPa NW 3.2 km/h 11.3 km/h 54 % 0 mm
09:36 12.3 °C 3.5 °C 1030.4 hPa WNW 3.2 km/h 9.7 km/h 55 % 0 mm
09:41 12.8 °C 3.2 °C 1030.4 hPa NW 4.8 km/h 9.7 km/h 52 % 0 mm
09:46 13.1 °C 3.2 °C 1030.7 hPa WNW 1.6 km/h 9.7 km/h 51 % 0 mm
09:51 13.4 °C 2.9 °C 1030.7 hPa NW 3.2 km/h 9.7 km/h 49 % 0 mm
09:56 13.6 °C 2.8 °C 1030.7 hPa NE 8 km/h 12.9 km/h 48 % 0 mm
10:01 13.9 °C 2.8 °C 1031 hPa North 3.2 km/h 12.9 km/h 47 % 0 mm
10:06 14.2 °C 2.1 °C 1031 hPa NW 9.7 km/h 12.9 km/h 44 % 0 mm
10:11 14.4 °C 2.3 °C 1031 hPa North 6.4 km/h 12.9 km/h 44 % 0 mm
10:16 14.7 °C 2.2 °C 1031 hPa WNW 4.8 km/h 12.9 km/h 43 % 0 mm
10:21 14.8 °C 1.7 °C 1031 hPa North 9.7 km/h 12.9 km/h 41 % 0 mm
10:26 14.8 °C 1.7 °C 1031 hPa NW 8 km/h 16.1 km/h 41 % 0 mm
10:31 14.9 °C 1.8 °C 1031 hPa NNW 11.3 km/h 16.1 km/h 41 % 0 mm
10:36 14.9 °C 1.8 °C 1031 hPa NNW 6.4 km/h 17.7 km/h 41 % 0 mm
10:41 14.8 °C 1.7 °C 1031 hPa WNW 11.3 km/h 17.7 km/h 41 % 0 mm
10:46 14.7 °C 1.6 °C 1031 hPa NW 6.4 km/h 19.3 km/h 41 % 0 mm
10:51 14.9 °C 1.8 °C 1031 hPa NNW 14.5 km/h 19.3 km/h 41 % 0 mm
10:56 15.2 °C 1.7 °C 1031 hPa NW 8 km/h 19.3 km/h 40 % 0 mm
11:01 15.2 °C 1.3 °C 1031 hPa NNW 1.6 km/h 16.1 km/h 39 % 0 mm
11:06 15.6 °C 2 °C 1031 hPa NNW 6.4 km/h 16.1 km/h 40 % 0 mm
11:11 15.9 °C 2 °C 1030.7 hPa NW 6.4 km/h 16.1 km/h 39 % 0 mm
11:16 15.7 °C 1 °C 1030.7 hPa NW 6.4 km/h 19.3 km/h 37 % 0 mm
11:21 15.7 °C 1 °C 1030.7 hPa NNW 19.3 km/h 19.3 km/h 37 % 0 mm
11:26 15.9 °C 1.2 °C 1030.7 hPa NNE 14.5 km/h 19.3 km/h 37 % 0 mm
11:31 15.9 °C 1.6 °C 1031 hPa West 11.3 km/h 19.3 km/h 38 % 0 mm
11:36 16.1 °C 1.8 °C 1030.7 hPa NNE 12.9 km/h 19.3 km/h 38 % 0 mm
11:41 16.1 °C 1 °C 1030.7 hPa NW 8 km/h 17.7 km/h 36 % 0 mm
11:46 15.9 °C 1.6 °C 1030.7 hPa NW 9.7 km/h 20.9 km/h 38 % 0 mm
11:51 15.9 °C 2.3 °C 1030.7 hPa NW 12.9 km/h 20.9 km/h 40 % 0 mm
11:56 15.9 °C 1.6 °C 1030.7 hPa North 8 km/h 20.9 km/h 38 % 0 mm
12:01 16.1 °C 2.1 °C 1030.4 hPa West 9.7 km/h 20.9 km/h 39 % 0 mm
12:06 16.1 °C 2.1 °C 1030.4 hPa North 8 km/h 20.9 km/h 39 % 0 mm
12:11 16.3 °C 2.3 °C 1030.4 hPa North 9.7 km/h 16.1 km/h 39 % 0 mm
12:16 16.3 °C 2.3 °C 1030 hPa NW 8 km/h 19.3 km/h 39 % 0 mm
12:21 16.3 °C 2 °C 1030 hPa NW 8 km/h 19.3 km/h 38 % 0 mm
12:26 16.4 °C 2.4 °C 1029.7 hPa NNW 12.9 km/h 19.3 km/h 39 % 0 mm
12:31 16.6 °C 2.6 °C 1030 hPa NNW 14.5 km/h 20.9 km/h 39 % 0 mm
12:37 16.6 °C 2.2 °C 1029.7 hPa NW 12.9 km/h 22.5 km/h 38 % 0 mm
12:42 16.7 °C 2.7 °C 1029.7 hPa NE 8 km/h 22.5 km/h 39 % 0 mm
12:47 16.8 °C 2.8 °C 1029.7 hPa NW 6.4 km/h 22.5 km/h 39 % 0 mm
12:52 16.7 °C 1.6 °C 1029.3 hPa NW 16.1 km/h 24.1 km/h 36 % 0 mm
12:57 16.4 °C 1.3 °C 1029.3 hPa NW 9.7 km/h 25.7 km/h 36 % 0 mm
13:02 16.6 °C 1.5 °C 1029.3 hPa NW 14.5 km/h 25.7 km/h 36 % 0 mm
13:07 16.7 °C 1.9 °C 1029.3 hPa WNW 14.5 km/h 25.7 km/h 37 % 0 mm
13:12 16.8 °C 1.6 °C 1029.3 hPa NNW 12.9 km/h 25.7 km/h 36 % 0 mm
13:17 16.8 °C 1.6 °C 1029 hPa NW 14.5 km/h 25.7 km/h 36 % 0 mm
13:22 16.9 °C 0.5 °C 1029 hPa NW 16.1 km/h 29 km/h 33 % 0 mm
13:27 16.8 °C 0.8 °C 1029 hPa NNE 16.1 km/h 35.4 km/h 34 % 0 mm
13:32 17 °C 0.6 °C 1028.7 hPa ENE 12.9 km/h 35.4 km/h 33 % 0 mm
13:37 16.9 °C 0.9 °C 1028.7 hPa NNW 11.3 km/h 35.4 km/h 34 % 0 mm
13:42 16.9 °C 1.3 °C 1028.7 hPa NNW 12.9 km/h 27.4 km/h 35 % 0 mm
13:47 17.1 °C 1.5 °C 1028.7 hPa NW 14.5 km/h 32.2 km/h 35 % 0 mm
13:52 17.1 °C 1.9 °C 1028.7 hPa NNW 20.9 km/h 32.2 km/h 36 % 0 mm
13:57 17.2 °C 2.4 °C 1028.7 hPa NW 11.3 km/h 32.2 km/h 37 % 0 mm
14:02 17.2 °C 2 °C 1028.7 hPa NNW 9.7 km/h 30.6 km/h 36 % 0 mm
14:07 17.3 °C 2.1 °C 1028.7 hPa NNW 24.1 km/h 30.6 km/h 36 % 0 mm
14:12 17.3 °C 2.1 °C 1028.7 hPa NW 8 km/h 24.1 km/h 36 % 0 mm
14:17 17.4 °C 2.6 °C 1028.7 hPa WNW 12.9 km/h 24.1 km/h 37 % 0 mm
14:22 17.4 °C 2.2 °C 1028.7 hPa NNW 8 km/h 24.1 km/h 36 % 0 mm
14:27 17.6 °C 2.7 °C 1028.7 hPa NW 8 km/h 24.1 km/h 37 % 0 mm
14:32 17.6 °C 3.1 °C 1028.7 hPa NNW 20.9 km/h 24.1 km/h 38 % 0 mm
14:37 17.6 °C 2.3 °C 1028.3 hPa NW 8 km/h 29 km/h 36 % 0 mm
14:42 17.7 °C 2.8 °C 1028.3 hPa NNE 8 km/h 29 km/h 37 % 0 mm
14:47 17.8 °C 2.5 °C 1028.3 hPa NW 12.9 km/h 29 km/h 36 % 0 mm
14:52 17.7 °C 2.4 °C 1028.3 hPa WNW 11.3 km/h 24.1 km/h 36 % 0 mm
14:57 17.7 °C 2.8 °C 1028.3 hPa NNW 9.7 km/h 20.9 km/h 37 % 0 mm
15:02 17.8 °C 2.5 °C 1028.3 hPa NW 11.3 km/h 25.7 km/h 36 % 0 mm
15:07 17.7 °C 2.4 °C 1028.3 hPa NW 14.5 km/h 25.7 km/h 36 % 0 mm
15:12 17.7 °C 2.4 °C 1028.3 hPa NW 9.7 km/h 25.7 km/h 36 % 0 mm
15:17 17.8 °C 1.3 °C 1028.3 hPa NW 17.7 km/h 22.5 km/h 33 % 0 mm
15:22 17.8 °C 1.3 °C 1028.3 hPa North 14.5 km/h 24.1 km/h 33 % 0 mm
15:27 17.7 °C 1.6 °C 1028.3 hPa NW 8 km/h 24.1 km/h 34 % 0 mm
15:32 17.8 °C 1.7 °C 1028 hPa NNW 6.4 km/h 24.1 km/h 34 % 0 mm
15:37 17.8 °C 1.7 °C 1028.3 hPa NNW 24.1 km/h 24.1 km/h 34 % 0 mm
15:42 17.7 °C 1.6 °C 1028.3 hPa NNW 16.1 km/h 24.1 km/h 34 % 0 mm
15:47 17.7 °C 1.6 °C 1028.3 hPa NNW 6.4 km/h 25.7 km/h 34 % 0 mm
15:52 17.7 °C 1.2 °C 1028.3 hPa NW 12.9 km/h 25.7 km/h 33 % 0 mm
15:57 17.6 °C 1.1 °C 1028.3 hPa NW 9.7 km/h 27.4 km/h 33 % 0 mm
16:02 17.7 °C 1.2 °C 1028.3 hPa WNW 14.5 km/h 27.4 km/h 33 % 0 mm
16:07 17.5 °C 1.5 °C 1028.3 hPa WNW 4.8 km/h 27.4 km/h 34 % 0 mm
16:12 17.5 °C 1 °C 1028.7 hPa NE 9.7 km/h 25.7 km/h 33 % 0 mm
16:17 17.4 °C 1.4 °C 1028.7 hPa NW 8 km/h 25.7 km/h 34 % 0 mm
16:22 17.4 °C 1 °C 1028.7 hPa NNW 14.5 km/h 24.1 km/h 33 % 0 mm
16:27 17.2 °C 1.2 °C 1028.7 hPa NW 12.9 km/h 22.5 km/h 34 % 0 mm
16:32 17.1 °C 1.1 °C 1028.7 hPa West 8 km/h 24.1 km/h 34 % 0 mm
16:37 17 °C 1 °C 1028.7 hPa North 17.7 km/h 25.7 km/h 34 % 0 mm
16:42 16.9 °C 0.9 °C 1028.7 hPa NNW 12.9 km/h 25.7 km/h 34 % 0 mm
16:47 16.8 °C 0.8 °C 1028.7 hPa NNW 9.7 km/h 27.4 km/h 34 % 0 mm
16:52 16.8 °C 1.2 °C 1028.7 hPa NW 12.9 km/h 27.4 km/h 35 % 0 mm
16:57 16.7 °C 1.2 °C 1028.7 hPa NW 9.7 km/h 27.4 km/h 35 % 0 mm
17:02 16.7 °C 1.2 °C 1028.7 hPa NW 8 km/h 24.1 km/h 35 % 0 mm
17:07 16.6 °C 1.1 °C 1028.7 hPa NW 6.4 km/h 24.1 km/h 35 % 0 mm
17:12 16.4 °C 1.3 °C 1028.7 hPa NW 4.8 km/h 19.3 km/h 36 % 0 mm
17:17 16.3 °C 1.2 °C 1029 hPa NW 8 km/h 25.7 km/h 36 % 0 mm
17:22 16.1 °C 0.6 °C 1029 hPa NNW 11.3 km/h 25.7 km/h 35 % 0 mm
17:27 15.9 °C 0.5 °C 1029 hPa NW 8 km/h 25.7 km/h 35 % 0 mm
17:32 15.8 °C 0.4 °C 1029.3 hPa NW 11.3 km/h 25.7 km/h 35 % 0 mm
17:37 15.7 °C 0.7 °C 1029 hPa NNW 6.4 km/h 25.7 km/h 36 % 0 mm
17:42 15.6 °C 1 °C 1029.3 hPa NW 8 km/h 22.5 km/h 37 % 0 mm
17:47 15.4 °C 1.1 °C 1029.3 hPa NNW 8 km/h 22.5 km/h 38 % 0 mm
17:53 15.2 °C 1 °C 1029.3 hPa NW 3.2 km/h 17.7 km/h 38 % 0 mm
17:58 15.1 °C 0.9 °C 1029.3 hPa NNW 8 km/h 17.7 km/h 38 % 0 mm
18:03 14.9 °C 1.1 °C 1029.3 hPa NW 1.6 km/h 16.1 km/h 39 % 0 mm
18:08 14.8 °C 1 °C 1029.3 hPa NW 4.8 km/h 16.1 km/h 39 % 0 mm
18:13 14.7 °C 1.2 °C 1029.3 hPa NNW 8 km/h 12.9 km/h 40 % 0 mm
18:18 14.6 °C 1.5 °C 1029.7 hPa NNW 6.4 km/h 14.5 km/h 41 % 0 mm
18:23 14.4 °C 1.3 °C 1029.7 hPa NW 6.4 km/h 14.5 km/h 41 % 0 mm
18:28 14.3 °C 1.2 °C 1029.7 hPa North 6.4 km/h 14.5 km/h 41 % 0 mm
18:33 14.2 °C 1.1 °C 1030 hPa NNW 4.8 km/h 14.5 km/h 41 % 0 mm
18:38 14 °C 0.9 °C 1030 hPa NW 4.8 km/h 12.9 km/h 41 % 0 mm
18:43 13.8 °C 1.1 °C 1030.4 hPa NW 1.6 km/h 9.7 km/h 42 % 0 mm
18:48 13.7 °C 1.3 °C 1030.4 hPa NNW 1.6 km/h 9.7 km/h 43 % 0 mm
18:53 13.5 °C 1.5 °C 1030.4 hPa Calm   9.7 km/h 44 % 0 mm
18:58 13.3 °C 1.9 °C 1030.7 hPa NW 3.2 km/h 9.7 km/h 46 % 0 mm
19:03 13.2 °C 1.8 °C 1030.7 hPa NNW 4.8 km/h 9.7 km/h 46 % 0 mm
19:08 13.1 °C 1.7 °C 1030.7 hPa NW 6.4 km/h 6.4 km/h 46 % 0 mm
19:13 12.9 °C 1.6 °C 1030.7 hPa NNW 1.6 km/h 8 km/h 46 % 0 mm
19:18 12.8 °C 1.8 °C 1030.7 hPa NW 4.8 km/h 8 km/h 47 % 0 mm
19:23 12.7 °C 1.7 °C 1030.7 hPa NW 3.2 km/h 8 km/h 47 % 0 mm
19:28 12.6 °C 1.9 °C 1030.7 hPa NW 1.6 km/h 6.4 km/h 48 % 0 mm
19:33 12.4 °C 1.7 °C 1030.7 hPa NW 1.6 km/h 6.4 km/h 48 % 0 mm
19:38 12.2 °C 1.5 °C 1030.7 hPa NNW 3.2 km/h 4.8 km/h 48 % 0 mm
19:43 12.2 °C 1.5 °C 1031 hPa Calm   4.8 km/h 48 % 0 mm
19:48 12.1 °C 1.7 °C 1031 hPa NW 1.6 km/h 4.8 km/h 49 % 0 mm
19:53 11.9 °C 1.5 °C 1031 hPa NW 1.6 km/h 4.8 km/h 49 % 0 mm
19:58 11.9 °C 1.5 °C 1031 hPa NW 3.2 km/h 4.8 km/h 49 % 0 mm
20:03 11.8 °C 1.7 °C 1031 hPa NW 3.2 km/h 6.4 km/h 50 % 0 mm
20:08 11.6 °C 1.5 °C 1031.4 hPa NW 3.2 km/h 6.4 km/h 50 % 0 mm
20:13 11.5 °C 1.4 °C 1031.4 hPa NW 3.2 km/h 6.4 km/h 50 % 0 mm
20:18 11.4 °C 1.6 °C 1031.4 hPa NNW 1.6 km/h 4.8 km/h 51 % 0 mm
20:23 11.3 °C 1.5 °C 1031.4 hPa NW 1.6 km/h 4.8 km/h 51 % 0 mm
20:28 11.2 °C 1.4 °C 1031.4 hPa NNW 3.2 km/h 6.4 km/h 51 % 0 mm
20:33 11.2 °C 1.7 °C 1031.4 hPa WNW 3.2 km/h 6.4 km/h 52 % 0 mm
20:38 11.1 °C 1.6 °C 1031.4 hPa NW 3.2 km/h 6.4 km/h 52 % 0 mm
20:43 10.9 °C 1.7 °C 1031.7 hPa NW 3.2 km/h 6.4 km/h 53 % 0 mm
20:48 10.8 °C 1.6 °C 1031.7 hPa West 3.2 km/h 6.4 km/h 53 % 0 mm
20:53 10.7 °C 1.8 °C 1031.7 hPa NW 1.6 km/h 4.8 km/h 54 % 0 mm
20:58 10.6 °C 1.7 °C 1031.7 hPa NW 1.6 km/h 4.8 km/h 54 % 0 mm
21:03 10.4 °C 1.5 °C 1031.7 hPa NNW 3.2 km/h 4.8 km/h 54 % 0 mm
21:08 10.4 °C 1.5 °C 1031.7 hPa NW 4.8 km/h 8 km/h 54 % 0 mm
21:13 10.4 °C 1.5 °C 1032.1 hPa NNW 1.6 km/h 9.7 km/h 54 % 0 mm
21:18 10.4 °C 1.5 °C 1032.1 hPa NW 1.6 km/h 9.7 km/h 54 % 0 mm
21:23 10.3 °C 1.4 °C 1032.1 hPa NNW 1.6 km/h 9.7 km/h 54 % 0 mm
21:28 10.3 °C 1.7 °C 1032.1 hPa NW 1.6 km/h 8 km/h 55 % 0 mm
21:33 10.2 °C 1.6 °C 1032.1 hPa Calm   8 km/h 55 % 0 mm
21:38 10.2 °C 1.6 °C 1032.1 hPa WNW 4.8 km/h 9.7 km/h 55 % 0 mm
21:43 10.1 °C 1.5 °C 1032.4 hPa Calm   9.7 km/h 55 % 0 mm
21:48 10 °C 1.6 °C 1032.4 hPa Calm   9.7 km/h 56 % 0 mm
21:53 9.9 °C 1.5 °C 1032.4 hPa NW 1.6 km/h 8 km/h 56 % 0 mm
21:58 9.7 °C 1.3 °C 1032.4 hPa Calm   8 km/h 56 % 0 mm
22:03 9.6 °C 1.5 °C 1032.7 hPa Calm   8 km/h 57 % 0 mm
22:08 9.4 °C 1.3 °C 1032.4 hPa Calm   4.8 km/h 57 % 0 mm
22:13 9.3 °C 1.5 °C 1032.7 hPa NW 3.2 km/h 3.2 km/h 58 % 0 mm
22:18 9.3 °C 1.5 °C 1032.7 hPa Calm   3.2 km/h 58 % 0 mm
22:23 9.1 °C 1.5 °C 1032.7 hPa Calm   3.2 km/h 59 % 0 mm
22:28 9 °C 1.4 °C 1032.7 hPa Calm   3.2 km/h 59 % 0 mm
22:33 8.9 °C 1.6 °C 1032.7 hPa NW 1.6 km/h 1.6 km/h 60 % 0 mm
22:38 8.8 °C 1.5 °C 1032.7 hPa Calm   1.6 km/h 60 % 0 mm
22:43 8.7 °C 1.4 °C 1032.7 hPa Calm   1.6 km/h 60 % 0 mm
22:48 8.7 °C 1.6 °C 1032.7 hPa NNW 1.6 km/h 3.2 km/h 61 % 0 mm
22:53 8.6 °C 1.3 °C 1032.7 hPa NNW 1.6 km/h 4.8 km/h 60 % 0 mm
22:58 8.4 °C 1.3 °C 1032.7 hPa Calm   4.8 km/h 61 % 0 mm
23:03 8.4 °C 1.3 °C 1032.7 hPa NNW 3.2 km/h 4.8 km/h 61 % 0 mm
23:08 8.4 °C 1.3 °C 1032.7 hPa NNW 1.6 km/h 4.8 km/h 61 % 0 mm
23:13 8.3 °C 1 °C 1032.7 hPa NW 1.6 km/h 4.8 km/h 60 % 0 mm
23:18 8.3 °C 1.2 °C 1032.7 hPa NNW 1.6 km/h 4.8 km/h 61 % 0 mm
23:23 8.2 °C 1.1 °C 1032.7 hPa NNW 3.2 km/h 4.8 km/h 61 % 0 mm
23:28 8.2 °C 1.1 °C 1032.7 hPa Calm   4.8 km/h 61 % 0 mm
23:33 8.2 °C 1.1 °C 1032.7 hPa NNW 3.2 km/h 4.8 km/h 61 % 0 mm
23:38 8.2 °C 0.9 °C 1032.7 hPa NNW 1.6 km/h 4.8 km/h 60 % 0 mm
23:43 8.2 °C 0.9 °C 1032.7 hPa NW 1.6 km/h 4.8 km/h 60 % 0 mm
23:48 8.1 °C 0.8 °C 1032.7 hPa NW 1.6 km/h 6.4 km/h 60 % 0 mm
23:53 8.1 °C 0.8 °C 1032.7 hPa NNW 1.6 km/h 6.4 km/h 60 % 0 mm
23:58 8 °C 0.7 °C 1032.7 hPa Calm   6.4 km/h 60 % 0 mm
Spring, Texas: Villages of Bridgestone
Compliments of Weather Underground - 2.75 mb

Script developed by  Jim McMurry - jmcmurry@mwt.net Adapted for the template by  Wim van der Kuil - Leuven-Template.eu

You find our weather info also at:

UK Metoffice

WeatherCloud

Weather Underground

Mid-South Weather Network

AWEKAS

Citizen Weather Observer Program (CWOP)

HAMweather, WeatherForYou, PWS Weather

Equipment we use:

Weather-station
Davis Vantage Vue

Weather-program
Meteohub

Weather-server
Debian 7.9 x86 (Guest)

Provider
DreamHost

Davis Vantage Vue

Meteohub

Debian 7.9 x86 (Guest)

DreamHost